Weather in Karlinskoye

Russia / Ulyanovsk Oblast     53°59′43″N   47°46′07″E
temp.,
°C
wind,
m/s
gust,
m/s
humid.,
%
clouds,
%
prec.,
mm/h
press.,
hPa
HPBL,
m
20 april, tue
tue2001:00+4e6135910 0.0 1026665
04:00+3e613648 0.0 1027574
07:00+2e613655 0.0 1027700
10:00+5ese811438 0.0 1027908
13:00+8ese8114068 0.0 10261213
16:00+10ese8113899 0.0 10251466
19:00+8ese71243100 0.0 10241259
22:00+7se81443100 0.0 1024927
21 april, wed
wed2101:00+5se91745100 0.0 1022826
04:00+5se101946100 0.0 1021810
07:00+3se102073100 0.9 1021767
10:00+4sse101974100 0.9 1021903
13:00+2se91782100 0.3 1020752
16:00+2sse91787100 1.0 1020741
19:00+2sse91793100 1.4 1020700
22:00+2sse81595100 1.4 1021592
22 april, thu
thu2201:00+3sse61296100 0.1 1021455
04:00+3sse51198100 0.7 1021381
07:00+4s51198100 0.5 1022425
10:00+6s51094100 0.5 1023618
13:00+10s687588 0.0 1023761
16:00+13ssw575834 0.1 10221429
19:00+11s5872100 1.1 1022287
22:00+8s6138993 2.5 1024420
23 april, fri
fri2301:00+6s49923 0.3 1024247
04:00+4s34951 0.3 102591
07:00+5s24930 0.0 1025123
10:00+10s33730 0.0 1025433
13:00+14sse22556 0.0 10241238
16:00+15ese224621 0.0 10231792
19:00+13ese4763100 0.0 1023329
22:00+9ese3579100 0.1 1022109
24 april, sat
sat2401:00+8e2285100 0.0 102140
04:00+7ne2388100 0.0 102050
07:00+7ne2589100 0.0 1018173
10:00+9ene3474100 0.0 1016575
13:00+12ene3363100 0.0 10151161
16:00+11e4366100 0.1 1014939
19:00+10ese347373 0.0 1013513
22:00+7se378567 0.0 1012255